DM4SB-13 Weather Reports


Display with metric or nautical units.
time (UTC)temp
F
wind
direction
speed
MPH
gust
MPH
rain 1hr
in
rain 24hr
in
rain mn
in
humidity
%
barometer
mb
20260505053018 57 0.0 0.0 0.00 0.00 0.00 68 1010.8
20260505052017 57 0.0 0.0 0.00 0.00 0.00 68 1010.6
20260505051018 57 0.0 0.0 0.00 0.00 0.00 68 1010.8
20260505041017 57 0.0 0.0 0.00 0.00 0.00 67 1010.8
20260505040017 57 0.0 0.0 0.00 0.00 0.00 67 1010.8
20260505035017 57 0.0 0.0 0.00 0.00 0.00 67 1010.9
20260505034018 58 0.0 0.0 0.00 0.00 0.00 67 1011.1
20260505033018 58 0.0 0.0 0.00 0.00 0.00 66 1011.0
20260505032017 58 0.0 0.0 0.00 0.00 0.00 66 1011.1
20260505031017 58 0.0 0.0 0.00 0.00 0.00 66 1011.3
20260505030017 58 0.0 0.0 0.00 0.00 0.00 66 1011.4
20260505025017 59 0.0 0.0 0.00 0.00 0.00 66 1011.4
20260505024018 59 0.0 0.0 0.00 0.00 0.00 66 1011.4
20260505023018 59 0.0 0.0 0.00 0.00 0.00 66 1011.5
20260505022018 59 0.0 0.0 0.00 0.00 0.00 65 1011.6
20260505021017 59 0.0 0.0 0.00 0.00 0.00 65 1011.7
20260505020018 60 0.0 0.0 0.00 0.00 0.00 65 1012.1
20260505014018 60 0.0 0.0 0.00 0.00 0.00 65 1012.0
20260505013017 60 0.0 0.0 0.00 0.00 0.00 64 1012.2
20260505012017 60 0.0 0.0 0.00 0.00 0.00 64 1012.3
20260505011018 60 0.0 0.0 0.00 0.00 0.00 64 1012.2
20260505010018 61 0.0 0.0 0.00 0.00 0.00 64 1012.2
20260505005017 61 0.0 0.0 0.00 0.00 0.00 63 1012.3
20260505004017 61 0.0 0.0 0.00 0.00 0.00 63 1012.1
20260505003017 61 0.0 0.0 0.00 0.00 0.00 63 1012.1
20260505002017 61 0.0 0.0 0.00 0.00 0.00 63 1012.2
20260505001018 62 0.0 0.0 0.00 0.00 0.00 63 1012.2
20260505000018 62 0.0 0.0 0.00 0.00 0.00 62 1012.0
20260504235017 62 0.0 0.0 0.00 0.00 0.00 62 1011.9
20260504234018 62 0.0 0.0 0.00 0.00 0.00 61 1011.9
20260504233018 63 0.0 0.0 0.00 0.00 0.00 61 1012.0
20260504232017 63 0.0 0.0 0.00 0.00 0.00 61 1012.1
20260504231017 63 0.0 0.0 0.00 0.00 0.00 60 1012.1
20260504230017 63 0.0 0.0 0.00 0.00 0.00 60 1012.3
20260504225018 64 0.0 0.0 0.00 0.00 0.00 59 1012.4
20260504224017 64 0.0 0.0 0.00 0.00 0.00 58 1012.2
20260504223017 64 0.0 0.0 0.00 0.00 0.00 57 1012.2
20260504222017 64 0.0 0.0 0.00 0.00 0.00 57 1012.2
20260504221018 64 0.0 0.0 0.00 0.00 0.00 57 1012.6
20260504220017 65 0.0 0.0 0.00 0.00 0.00 57 1012.7
20260504215018 65 0.0 0.0 0.00 0.00 0.00 57 1012.7
20260504214017 65 0.0 0.0 0.00 0.00 0.00 56 1012.9
20260504213018 65 0.0 0.0 0.00 0.00 0.00 56 1013.1
20260504212017 65 0.0 0.0 0.00 0.00 0.00 56 1012.9
20260504211018 66 0.0 0.0 0.00 0.00 0.00 56 1013.2
20260504210017 66 0.0 0.0 0.00 0.00 0.00 56 1013.5
20260504205017 66 0.0 0.0 0.00 0.00 0.00 56 1013.6
20260504204018 66 0.0 0.0 0.00 0.00 0.00 55 1013.5
20260504203017 67 0.0 0.0 0.00 0.00 0.00 53 1013.3
20260504202018 67 0.0 0.0 0.00 0.00 0.00 51 1013.4
20260504201017 68 0.0 0.0 0.00 0.00 0.00 51 1013.0
20260504200018 68 0.0 0.0 0.00 0.00 0.00 51 1012.7
20260504195018 68 0.0 0.0 0.00 0.00 0.00 50 1012.4
20260504194017 68 0.0 0.0 0.00 0.00 0.00 50 1012.2
20260504193017 68 0.0 0.0 0.00 0.00 0.00 50 1012.1
20260504192018 68 0.0 0.0 0.00 0.00 0.00 50 1012.1
20260504191018 69 0.0 0.0 0.00 0.00 0.00 50 1011.9
20260504190018 69 0.0 0.0 0.00 0.00 0.00 49 1011.6
20260504185018 69 0.0 0.0 0.00 0.00 0.00 49 1011.7
20260504184017 69 0.0 0.0 0.00 0.00 0.00 48 1011.5
20260504183017 69 0.0 0.0 0.00 0.00 0.00 48 1011.5
20260504182018 69 0.0 0.0 0.00 0.00 0.00 48 1011.5
20260504181018 70 0.0 0.0 0.00 0.00 0.00 48 1011.4
20260504180017 70 0.0 0.0 0.00 0.00 0.00 49 1011.2
20260504175017 70 0.0 0.0 0.00 0.00 0.00 48 1011.2
20260504174018 70 0.0 0.0 0.00 0.00 0.00 50 1011.0
20260504173017 70 0.0 0.0 0.00 0.00 0.00 52 1010.9
20260504172017 70 0.0 0.0 0.00 0.00 0.00 56 1010.8
20260504171017 71 0.0 0.0 0.00 0.00 0.00 54 1010.8
20260504151018 76 0.0 0.0 0.00 0.00 0.00 37 1011.2
20260504141017 80 0.0 0.0 0.00 0.00 0.00 32 1011.3
20260504081018 61 0.0 0.0 0.00 0.00 0.00 52 1015.4